Terug naar catalogus

HAWK-8C

ActiefWetenschapVLEO
NORAD 59449·PAYLOAD·🇺🇸 United States

Gelanceerd Apr 7, 2024 vanaf Cape Canaveral Space Force Station

Loading…

Volgende Passages (komende 24 uur)

TLE

VersSource: Space-Track

Epoch: Sep 14, 2026, 11:08 UTC

1 59449U 24066H   26257.46415750  .00002325  00000-0  20563-3 0  9994
2 59449  45.6066 176.0153 0002246 204.7371 155.3403 14.99416897133221

Volg HAWK-8C in realtime met AllMySat

Download on the App Store